This demonstration page uses our WeatherBlox Daily Observations layout. Learn more.

40.92945, -100.16068

Hourly Observations for December 21, 2018

Temp ( °F °C ) Dew Point ( °F °C ) Humidity (%) Winds ( mph kmh ) Pressure ( in mb ) Visibility ( mi km ) Precip ( " mm )
12:15 am 00:15 Clear 26 -3.2 22 -5.5 84 84 WNW 6 9 30.15 1021 10 16.09344 0 0
12:35 am 00:35 Clear 25 -4 21 -6 86 86 WNW 3 6 30.12 1020 10 16.09344 0 0
12:55 am 00:55 Clear 25 -3.8 21 -5.9 86 86 WNW 6 9 30.12 1020 10 16.09344 0 0
1:15 am 01:15 Clear 25 -4.1 21 -6.2 86 86 NW 6 9 30.12 1020 10 16.09344 0 0
1:35 am 01:35 Clear 24 -4.2 21 -6.3 85 85 WNW 7 11 30.12 1020 10 16.09344 0 0
1:55 am 01:55 Clear 24 -4.5 20 -6.6 85 85 WNW 3 6 30.12 1020 10 16.09344 0 0
2:15 am 02:15 Clear 25 -4.1 21 -6.1 86 86 WNW 5 7 30.12 1020 10 16.09344 0 0
2:35 am 02:35 Clear 26 -3.5 22 -5.7 85 85 WNW 8 13 30.09 1019 10 16.09344 0 0
2:55 am 02:55 Clear 25 -4 21 -6.1 86 86 W 5 7 30.09 1019 10 16.09344 0 0
3:15 am 03:15 Clear 24 -4.2 20 -6.5 84 84 W 5 7 30.09 1019 10 16.09344 0 0
3:35 am 03:35 Clear 24 -4.6 20 -6.6 86 86 WNW 3 6 30.09 1019 10 16.09344 0 0
3:55 am 03:55 Clear 24 -4.7 20 -6.5 87 87 W 5 7 30.06 1018 10 16.09344 0 0
4:15 am 04:15 Clear 24 -4.6 20 -6.4 87 87 WNW 3 6 30.06 1018 10 16.09344 0 0
4:35 am 04:35 Clear 24 -4.7 20 -6.5 87 87 WNW 3 6 30.06 1018 10 16.09344 0 0
4:55 am 04:55 Clear 24 -4.5 21 -6.2 88 88 WNW 3 6 30.03 1017 10 16.09344 0 0
5:15 am 05:15 Clear 24 -4.7 21 -6.3 89 89 Calm 30.03 1017 10 16.09344 0 0
5:35 am 05:35 Clear 23 -5.1 20 -6.6 89 89 Calm 30 1016 10 16.09344 0 0
5:55 am 05:55 Clear 23 -4.8 20 -6.4 89 89 Calm 30 1016 10 16.09344 0 0
6:15 am 06:15 Clear 23 -5.1 20 -6.7 89 89 Calm 30 1016 10 16.09344 0 0
6:35 am 06:35 Clear 22 -5.5 19 -7 89 89 E 3 6 29.97 1015 10 16.09344 0 0
6:55 am 06:55 Clear 23 -5.2 19 -7 87 87 E 3 6 29.97 1015 10 16.09344 0 0
7:15 am 07:15 Clear 22 -5.3 19 -7 88 88 Calm 30 1016 10 16.09344 0 0
7:35 am 07:35 Clear 22 -5.6 19 -7.2 89 89 Calm 29.97 1015 10 16.09344 0 0
7:55 am 07:55 Clear 22 -5.5 19 -7.2 88 88 Calm 29.97 1015 10 16.09344 0 0
8:15 am 08:15 Sunny 22 -5.3 19 -7 88 88 SE 6 9 29.97 1015 10 16.09344 0 0
8:35 am 08:35 Sunny 24 -4.4 21 -6.1 88 88 SSE 5 7 29.97 1015 10 16.09344 0 0
8:55 am 08:55 Sunny 29 -1.8 23 -5 79 79 ESE 6 9 29.94 1014 10 16.09344 0 0
9:15 am 09:15 Sunny 30 -1.3 24 -4.5 79 79 SE 3 6 29.88 1012 10 16.09344 0 0
9:35 am 09:35 Sunny 32 0 25 -3.9 75 75 SSE 5 7 29.88 1012 10 16.09344 0 0
9:55 am 09:55 Sunny 34 1.2 28 -2.5 77 77 S 6 9 29.88 1012 10 16.09344 0 0
10:15 am 10:15 Sunny 38 3.2 27 -3 64 64 S 8 13 29.85 1011 10 16.09344 0 0
10:35 am 10:35 Sunny 39 4.1 26 -3.2 59 59 S 8 13 29.83 1010 10 16.09344 0 0
10:55 am 10:55 Sunny 42 5.7 25 -3.9 50 50 S 12 19 29.8 1009 10 16.09344 0 0
11:15 am 11:15 Sunny 45 7 24 -4.6 44 44 S 14 22 29.8 1009 10 16.09344 0 0
11:35 am 11:35 Sunny 45 7 22 -5.4 41 41 S 14 22 29.77 1008 10 16.09344 0 0
11:55 am 11:55 Sunny 46 7.6 21 -6 38 38 S 8 13 29.74 1007 10 16.09344 0 0
12:15 pm 12:15 Sunny 46 8 21 -6.2 36 36 S 13 20 29.71 1006 10 16.09344 0 0
12:35 pm 12:35 Sunny 47 8.3 22 -5.5 37 37 S 14 22 29.71 1006 10 16.09344 0 0
12:55 pm 12:55 Sunny 48 8.9 23 -5.2 37 37 S 13 20 29.71 1006 10 16.09344 0 0
1:15 pm 13:15 Sunny 49 9.6 24 -4.5 37 37 S 15 24 29.71 1006 10 16.09344 0 0
1:35 pm 13:35 Sunny 49 9.7 24 -4.5 37 37 S 13 20 29.68 1005 10 16.09344 0 0
1:55 pm 13:55 Sunny 51 10.3 24 -4.6 35 35 S 13 20 29.65 1004 10 16.09344 0 0
2:15 pm 14:15 Sunny 51 10.8 24 -4.7 34 34 S 13 20 29.65 1004 10 16.09344 0 0
2:35 pm 14:35 Sunny 52 11 24 -4.5 34 34 S 14 22 29.65 1004 10 16.09344 0 0
2:55 pm 14:55 Sunny 51 10.7 25 -4.1 35 35 S 14 22 29.65 1004 10 16.09344 0 0
3:15 pm 15:15 Sunny 51 10.3 25 -3.7 37 37 SSW 13 20 29.65 1004 10 16.09344 0 0
3:35 pm 15:35 Sunny 50 10.1 26 -3.2 39 39 SW 10 17 29.65 1004 10 16.09344 0 0
3:55 pm 15:55 Sunny 50 10 28 -2.5 42 42 SW 8 13 29.65 1004 10 16.09344 0 0
4:15 pm 16:15 Sunny 49 9.5 27 -2.7 43 43 SW 12 19 29.68 1005 10 16.09344 0 0
4:35 pm 16:35 Sunny 48 8.8 27 -2.6 45 45 SSW 7 11 29.68 1005 10 16.09344 0 0
4:55 pm 16:55 Sunny 45 7.3 28 -2.4 51 51 SSW 6 9 29.68 1005 10 16.09344 0 0
5:15 pm 17:15 Clear 45 7 28 -2.1 53 53 SW 7 11 29.68 1005 10 16.09344 0 0
5:35 pm 17:35 Clear 45 7.4 28 -2 52 52 SSW 8 13 29.68 1005 10 16.09344 0 0
5:55 pm 17:55 Clear 46 7.5 28 -2 51 51 SSW 9 15 29.68 1005 10 16.09344 0 0
6:15 pm 18:15 Clear 44 6.4 28 -2 55 55 SW 9 15 29.71 1006 10 16.09344 0 0
6:35 pm 18:35 Clear 41 5.1 28 -2.3 59 59 SW 7 11 29.71 1006 10 16.09344 0 0
6:55 pm 18:55 Clear 40 4.6 28 -2.4 61 61 SSW 6 9 29.71 1006 10 16.09344 0 0
7:15 pm 19:15 Clear 41 4.8 28 -2.3 60 60 Calm 29.74 1007 10 16.09344 0 0
7:35 pm 19:35 Clear 37 2.5 29 -1.9 73 73 N 8 13 29.77 1008 10 16.09344 0 0
7:55 pm 19:55 Clear 36 2.2 28 -2 74 74 Calm 29.77 1008 10 16.09344 0 0
8:15 pm 20:15 Clear 32 0.1 27 -2.8 81 81 NW 7 11 29.8 1009 10 16.09344 0 0
8:35 pm 20:35 Clear 31 -0.5 26 -3.1 83 83 NNW 9 15 29.83 1010 10 16.09344 0 0
8:55 pm 20:55 Clear 35 1.5 28 -2.5 75 75 NNW 8 13 29.8 1009 10 16.09344 0 0
9:15 pm 21:15 Clear 33 0.6 26 -3.2 76 76 WNW 5 7 29.83 1010 10 16.09344 0 0
9:35 pm 21:35 Clear 33 0.7 28 -2.5 79 79 NNW 9 15 29.83 1010 10 16.09344 0 0
9:55 pm 21:55 Clear 32 0 27 -2.9 81 81 W 6 9 29.85 1011 10 16.09344 0 0
10:15 pm 22:15 Clear 35 1.6 28 -2.5 74 74 NNW 9 15 29.83 1010 10 16.09344 0 0
10:35 pm 22:35 Clear 32 -0.2 26 -3.1 81 81 W 9 15 29.85 1011 10 16.09344 0 0
10:55 pm 22:55 Clear 33 0.3 27 -2.7 81 81 W 6 9 29.88 1012 10 16.09344 0 0
11:15 pm 23:15 Clear 32 0.1 27 -2.7 82 82 W 9 15 29.88 1012 10 16.09344 0 0
11:35 pm 23:35 Clear 31 -0.7 26 -3.1 84 84 W 10 17 29.88 1012 10 16.09344 0 0
11:55 pm 23:55 Clear 32 0 27 -2.7 82 82 WNW 9 15 29.88 1012 10 16.09344 0 0

Powered by AerisWeather